Regional Weather Roundup
Issued by NWS Newport/Morehead, NC

Current Version | Previous Version | Text Only | Print | Product List | Glossary Off
Versions: 1 2 3 4 5 6 7 8 9 10 11 12 13 14 15 16 17 18 19 20 21 22 23 24 25 26 27 28 29 30 31 32 33 34 35 36 37 38 39 40 41 42 43 44 45 46 47 48 49 50
861 ASUS42 KMHX 031413 RWRMHX WEATHER ROUNDUP FOR EASTERN NORTH CAROLINA NATIONAL WEATHER SERVICE NEWPORT/MOREHEAD CITY NC 1000 AM EDT TUE MAY 03 2016 NOTE: "FAIR" INDICATES FEW OR NO CLOUDS BELOW 12,000 FEET WITH NO SIGNIFICANT WEATHER AND/OR OBSTRUCTIONS TO VISIBILITY NCZ015>017-031-032-045>047-102-103-031500- NORTH COAST CITY SKY/WX TMP DP RH WIND PRES REMARKS EDENTON DRIZZLE 67 67 100 SW6 29.87R ELIZABETH CITY LGT RAIN 66 64 93 SW6 29.85S KITTY HAWK RAIN 66 66 99 CALM 29.84F MANTEO NOT AVBL $$ NCZ045>047-081-094-103-104-031500- CENTRAL COAST CITY SKY/WX TMP DP RH WIND PRES REMARKS FRISCO RAIN 66 65 96 W12G21 29.88F SWANQUARTER NOT AVBL $$ NCZ095-097-098-100-101-031500- SOUTHERN COAST CITY SKY/WX TMP DP RH WIND PRES REMARKS BEAUFORT HVY RAIN 65 64 97 SW7 29.92S FOG CEDAR ISLAND NOT AVBL JACKSONVILLE HVY RAIN 65 62 90 S7 29.90S FOG PINEY ISLAND NOT AVBL WILMINGTON RAIN 66 65 96 SE6 29.90R FOG $$ NCZ011>013-027>030-043-044-078>080-089-090>093-098-031500- COASTAL PLAIN CITY SKY/WX TMP DP RH WIND PRES REMARKS AHOSKIE RAIN 64 63 97 S3 29.85S CLINTON CLOUDY 66 66 100 CALM 29.87S ELIZABETHTOWN CLOUDY 66 66 100 SE5 29.87F GOLDSBORO CLOUDY 66 66 100 S6 29.84F GREENVILLE LGT RAIN 66 66 100 S7 29.88F HAVELOCK RAIN 66 64 93 SW10 29.91S KENANSVILLE CLOUDY 65 64 99 CALM 29.88F KINSTON DRIZZLE 66 66 100 S6 29.88R NEW BERN HVY RAIN 66 64 93 S8 29.89F FOG RICHLANDS LGT RAIN 65 64 97 S8 29.90S ROCKY MOUNT PTSUNNY 67 65 93 S7 29.85S WASHINGTON LGT RAIN 66 65 97 S5 29.86F WHITEVILLE CLOUDY 66 65 94 CALM 29.87F $$ AMZ130-135-150-152-154-156-158-170-250-252-270-ANZ085-086-088-633-658-670-031500- MARINE OBSERVATIONS STATION/POSITION TIME TEMP WIND PRES WAVE SWELL AIR SEA DIR/SP/G HT/PER HT/PER (UTC) (F) (DEG/KT/KT) (MB) (FT/S) (FT/S) CHESAPEAKE LIGHT 1400 65 240/ 14/ 15 1010.4 64 E VA BEACH 1350 60 54 270/ 12/ 14 1009.5 3/ 6 3/ 6 DUCK 1300 67 65 270/ 14/ 17 1010.5 2 E DUCK 1311 58 N/A 2/10 OREGON INLET 1300 67 72 250/ 19/ 27 1010.6 13E OREGON INLT 1300 61 N/A 4/ 5 2/ 9 HATTERAS CG 1300 67 70 260/ 18/ 28 1011.8 DIAMOND BUOY 1250 74 73 230/ 21/ 25 1010.8 5/ 6 2/ 9 CAPE LOOKOUT 1400 64 280/ 7/ 9 1012.6 BEAUFORT LAB 1300 65 67 230/ 4/ 8 1012.2 30 SE NEW RVR IN 1325 70 N/A 6/ 6 27 SE WRIGHTSVLE 1308 72 72 230/ 21/ 31 1010.9 5 SE WRIGHTSVLE 1308 67 69 270/ 6/ 16 1013.7 225 S CAPE HAT 1250 74 74 180/ 16/ 19 1015.8 4/ 5 2/ 9 41 SE CHARLESTON 1250 75 74 210/ 14/ 16 1011.1 5/ 6 2/10 $$

USA.gov is the U.S. government's official web portal to all federal, state and local government web resources and services.